Regional Weather Roundup
Issued by NWS

Home | Current Version | Previous Version | Graphics & Text | Print | Product List | Glossary Off
Versions: 1 2 3 4 5 6 7 8 9 10 11 12 13 14 15 16 17 18 19 20 21 22 23 24 25 26 27 28 29 30 31 32 33 34 35 36 37 38 39 40 41 42 43 44 45 46 47 48 49 50

143
ASUS43 KTOP 242359
RWRKS

WEATHER ROUNDUP FOR KANSAS
NATIONAL WEATHER SERVICE GOODLAND KS
600 PM CST FRI FEB 24 2017

NOTE:  "FAIR" INDICATES FEW OR NO CLOUDS BELOW 12,000 FEET WITH NO
SIGNIFICANT WEATHER AND/OR OBSTRUCTIONS TO VISIBILITY.

KSZ001>006-013>018-027>032-041>047-250100-
NORTHWEST KANSAS

CITY           SKY/WX    TMP DP  RH WIND       PRES   REMARKS
GOODLAND       CLOUDY    28  19  69 N12       30.03R WCI  18
6HR MIN TEMP:  26; 6HR MAX TEMP:  29; 6HR PCP: TRACE;

HAYS           PTCLDY    30  17  58 N21       30.08R WCI  17
HILL CITY      CLOUDY    29  15  56 N16       30.08R WCI  17
6HR MIN TEMP:  29; 6HR MAX TEMP:  36; 6HR PCP: TRACE;

RUSSELL        CLOUDY    28  16  60 N18G28    30.06R WCI  15
6HR MIN TEMP:  28; 6HR MAX TEMP:  34; 6HR PCP: TRACE;

$$

KSZ061>065-074>080-084>089-250100-
SOUTHWEST KANSAS

CITY           SKY/WX    TMP DP  RH WIND       PRES   REMARKS
DODGE CITY     CLOUDY    35  18  49 N17       30.04R WCI  25
6HR MIN TEMP:  34; 6HR MAX TEMP:  38;

ELKHART          N/A     36  11  35 N8          N/A
GARDEN CITY    CLOUDY    34  16  47 N16       30.04R WCI  24
6HR MIN TEMP:  34; 6HR MAX TEMP:  38;

GREAT BEND     CLEAR     31  19  61 N21       30.05R WCI  18
LIBERAL        MOCLDY    37  12  35 N17       30.03S WCI  28
$$

KSZ066>073-081>083-090>101-250100-
SOUTHEAST KANSAS

CITY           SKY/WX    TMP DP  RH WIND       PRES   REMARKS
CHANUTE        CLOUDY    33  20  58 NW21G31   29.97R WCI  21
6HR MIN TEMP:  33; 6HR MAX TEMP:  47;

COFFEYVILLE    CLOUDY    37  21  52 NW25G31   29.99R WCI  25
6HR MIN TEMP:  37; 6HR MAX TEMP:  50;

HUTCHINSON     PTCLDY    32  18  56 NW21G30   30.03R WCI  20
6HR MIN TEMP:  32; 6HR MAX TEMP:  37;

MEDICINE LODGE   N/A     35  20  54 NW20G26   30.04R WCI  24
NEWTON         MOCLDY    30  21  69 NW22G29   30.02R WCI  17
PARSONS        CLOUDY    35  20  54 NW20G30   29.99R WCI  24
6HR MIN TEMP:  35; 6HR MAX TEMP:  49; 6HR PCP: TRACE;

WICHITA INTL   PTCLDY    34  21  59 N18       30.02R WCI  23
6HR MIN TEMP:  33; 6HR MAX TEMP:  39;

WICHITA JABRA  MOCLDY    32  21  64 N16       30.01R WCI  21
6HR MIN TEMP:  32; 6HR MAX TEMP:  37;

WINFIELD       PTCLDY    34  21  59 N18G31    30.04R WCI  23
6HR MIN TEMP:  34; 6HR MAX TEMP:  42;

$$

KSZ007>012-019>026-033>040-048>060-102>105-250100-
NORTHEAST KANSAS

CITY           SKY/WX    TMP DP  RH WIND       PRES   REMARKS
CONCORDIA      CLOUDY    26  18  71 NW14G26   30.05R WCI  14
6HR MIN TEMP:  25; 6HR MAX TEMP:  27; 6HR PCP:  0.01;

EMPORIA        CLOUDY    30  21  69 NW22G30   29.99R WCI  17
6HR MIN TEMP:  30; 6HR MAX TEMP:  39; 6HR PCP: TRACE;

LAWRENCE       CLOUDY    29  21  72 NW24G30   29.95R WCI  15
6HR MIN TEMP:  29; 6HR MAX TEMP:  37; 6HR PCP:  0.01;

MANHATTAN      LGT SNOW  28  20  71 NW10G20   30.03R WCI  19
6HR MIN TEMP:  28; 6HR MAX TEMP:  33; 6HR PCP: TRACE;

OLATHE IND     CLOUDY    29  22  75 NW22      29.92R WCI  15
6HR MIN TEMP:  29; 6HR MAX TEMP:  39; 6HR PCP: TRACE;

OLATHE EXE     CLOUDY    29  22  75 NW18G25   29.90R WCI  16
6HR MIN TEMP:  29; 6HR MAX TEMP:  39; 6HR PCP:  0.01;

SALINA         CLOUDY    30  17  58 NW24      30.06R WCI  16
6HR MIN TEMP:  30; 6HR MAX TEMP:  35; 6HR PCP: TRACE;

TOPEKA BILLARD CLOUDY    29  22  75 NW25G32   29.97R WCI  14
6HR MIN TEMP:  29; 6HR MAX TEMP:  36; 6HR PCP: TRACE;

TOPEKA FORBES  CLOUDY    30  22  72 NW21G26   29.96R WCI  17
6HR MIN TEMP:  30; 6HR MAX TEMP:  37;

$$




USA.gov is the U.S. government's official web portal to all federal, state and local government web resources and services.